Weather History for 94592 - May, 2013

Change the Weather History Date:

Friday, May 24, 2013

  Actual Average Record
Temperature  
Mean Temperature 58 °F -  
Max Temperature 66 °F - - ()
Min Temperature 50 °F - - ()
Degree Days  
Heating Degree Days 7    
Growing Degree Days 8 (Base 50)    
Moisture  
Dew Point 54 °F    
Average Humidity 81    
Maximum Humidity 94    
Minimum Humidity 52    
Precipitation  
Precipitation 0.24 in - - ()
Sea Level Pressure  
Sea Level Pressure 29.78 in    
Wind  
Wind Speed 7 mph ()    
Max Wind Speed 21 mph    
Max Gust Speed 34 mph    
Visibility 6.0 miles    
Events      
T = Trace of Precipitation, MM = Missing Value Source: Averaged Metar Reports

Daily Weather History Graph

Daily Weather History Graph

Search for Another Location

Airport or City:

Trip Planner

Search our weather history database for the weather conditions in past years. The results will help you decide how hot, cold, wet, or windy it might be!

Date:

Astronomy

May. 24, 2013 Rise Set
Actual Time 6:25 AM AEST 4:59 PM AEST
Civil Twilight 6:00 AM AEST 5:25 PM AEST
Nautical Twilight 5:31 AM AEST 5:53 PM AEST
Astronomical Twilight 5:03 AM AEST 6:22 PM AEST
Moon 4:11 PM AEST (5/24) 4:58 AM AEST (5/24)
Length of Visible Light 11h 25m
Length of Day
10h 34m
Waxing Gibbous, 98% of the Moon is Illuminated
May 24
Waxing Gibbous
May 25
Full
Jun 1
Last Quarter
Jun 9
New
Jun 17
First Quarter

Hourly Weather History & Observations

Time (AEST) Temp. Dew Point Humidity Pressure Visibility Wind Dir Wind Speed Gust Speed Precip Events Conditions
12:00 AM 53 °F 51 °F 91% 29.80 in - WSW 5.8 mph - -  
12:00 AM 53.6 °F 51.8 °F 94% 29.80 in 6.2 mi WSW 5.8 mph - N/A   Unknown
12:30 AM 51.8 °F 50.0 °F 94% 29.77 in 6.2 mi SSE 3.5 mph - N/A   Unknown
1:00 AM 51.8 °F 50.0 °F 94% 29.77 in 6.2 mi SW 1.2 mph - N/A   Scattered Clouds
1:30 AM 53.6 °F 51.8 °F 94% 29.77 in 6.2 mi WSW 6.9 mph - N/A   Mostly Cloudy
2:00 AM 53.6 °F 51.8 °F 94% 29.77 in 6.2 mi WSW 4.6 mph - N/A   Overcast
2:30 AM 55.4 °F 51.8 °F 88% 29.77 in 6.2 mi SSW 1.2 mph - N/A   Overcast
3:00 AM 55 °F 53 °F 90% 29.76 in - Calm Calm - -  
3:00 AM 55.4 °F 53.6 °F 94% 29.74 in 6.2 mi Calm Calm - N/A   Overcast
3:30 AM 55.4 °F 51.8 °F 88% 29.74 in 6.2 mi SW 3.5 mph - N/A   Overcast
4:00 AM 53.6 °F 51.8 °F 94% 29.74 in 6.2 mi WSW 4.6 mph - N/A   Scattered Clouds
4:30 AM 55.4 °F 51.8 °F 88% 29.74 in 6.2 mi WSW 5.8 mph - N/A   Overcast
5:00 AM 55.4 °F 51.8 °F 88% 29.74 in 6.2 mi WSW 5.8 mph - N/A   Overcast
5:30 AM 57.2 °F 53.6 °F 88% 29.74 in 6.2 mi Calm Calm - N/A   Overcast
6:00 AM 56 °F 53 °F 85% 29.76 in - WNW 4.6 mph - -  
6:00 AM 55.4 °F 53.6 °F 94% 29.74 in 6.2 mi WNW 4.6 mph - N/A   Overcast
6:30 AM 57.2 °F 53.6 °F 88% 29.77 in 6.2 mi Calm Calm - N/A   Overcast
7:00 AM 57.2 °F 53.6 °F 88% 29.77 in 6.2 mi West 6.9 mph - N/A   Overcast
7:30 AM 57.2 °F 55.4 °F 94% 29.77 in 6.2 mi WSW 5.8 mph - N/A   Overcast
8:00 AM 59.0 °F 55.4 °F 88% 29.77 in 6.2 mi South 2.3 mph - N/A   Overcast
8:22 AM 59.0 °F 55.4 °F 88% 29.80 in 3.7 mi SSW 4.6 mph - N/A   Overcast
8:30 AM 60.8 °F 57.2 °F 88% 29.80 in 2.5 mi SW 3.5 mph - N/A   Overcast
8:44 AM 60.8 °F 57.2 °F 88% 29.80 in 5.0 mi SW 4.6 mph - N/A   Overcast
9:00 AM 61 °F 58 °F 85% 29.81 in - WSW 3.5 mph - -   Overcast
9:00 AM 60.8 °F 57.2 °F 88% 29.80 in 6.2 mi WSW 3.5 mph - N/A   Overcast
9:30 AM 62.6 °F 57.2 °F 82% 29.80 in 6.2 mi West 5.8 mph - N/A   Overcast
10:00 AM 62.6 °F 57.2 °F 82% 29.80 in 6.2 mi WNW 6.9 mph - N/A   Overcast
10:30 AM 62.6 °F 57.2 °F 82% 29.80 in 6.2 mi WNW 5.8 mph - N/A   Overcast
11:00 AM 64.4 °F 55.4 °F 73% 29.80 in 6.2 mi WSW 8.1 mph - N/A   Overcast
11:30 AM 64.4 °F 53.6 °F 68% 29.77 in 6.2 mi SW 9.2 mph - N/A   Overcast
12:00 PM 62 °F 54 °F 69% 29.78 in - West 5.8 mph - -  
12:00 PM 62.6 °F 53.6 °F 72% 29.77 in 6.2 mi West 5.8 mph - N/A   Overcast
12:30 PM 60.8 °F 57.2 °F 88% 29.77 in 6.2 mi NW 4.6 mph - N/A   Overcast
1:00 PM 60.8 °F 57.2 °F 88% 29.74 in 6.2 mi NW 5.8 mph - N/A   Overcast
1:30 PM 64.4 °F 60.8 °F 88% 29.74 in 6.2 mi NW 6.9 mph - N/A   Overcast
2:00 PM 66.2 °F 57.2 °F 73% 29.71 in 6.2 mi WSW 8.1 mph - N/A   Scattered Clouds
2:07 PM 66.2 °F 50.0 °F 56% 29.74 in 6.2 mi SW 20.7 mph - N/A   Scattered Clouds
2:30 PM 66.2 °F 53.6 °F 64% 29.74 in 6.2 mi SW 13.8 mph - N/A   Overcast
3:00 PM 64 °F 51 °F 52% 29.73 in - SW 13.8 mph - -   Overcast
3:00 PM 64.4 °F 50.0 °F 59% 29.71 in 6.2 mi SW 13.8 mph - N/A   Overcast
3:30 PM 62.6 °F 51.8 °F 68% 29.71 in 6.2 mi West 11.5 mph - N/A   Mostly Cloudy
4:00 PM 62.6 °F 51.8 °F 68% 29.74 in 6.2 mi West 13.8 mph 25.3 mph N/A   Overcast
4:30 PM 62.6 °F 51.8 °F 68% 29.74 in 6.2 mi WSW 10.4 mph - N/A   Overcast
5:00 PM 59.0 °F 53.6 °F 82% 29.74 in 5.0 mi WSW 12.7 mph 24.2 mph N/A   Overcast
5:30 PM 59.0 °F 55.4 °F 88% 29.74 in 5.0 mi SW 15.0 mph - N/A   Overcast
6:00 PM 60 °F 54 °F 75% 29.76 in - SW 15.0 mph - -   Overcast
6:00 PM 59.0 °F 53.6 °F 82% 29.74 in 6.2 mi SW 15.0 mph - N/A   Overcast
6:30 PM 60.8 °F 53.6 °F 77% 29.77 in 6.2 mi SW 12.7 mph - N/A   Overcast
7:00 PM 60.8 °F 53.6 °F 77% 29.77 in 6.2 mi SW 11.5 mph - N/A   Mostly Cloudy
7:30 PM 60.8 °F 53.6 °F 77% 29.80 in 6.2 mi SW 17.3 mph - N/A   Overcast
8:00 PM 60.8 °F 53.6 °F 77% 29.80 in 6.2 mi WSW 10.4 mph - N/A   Mostly Cloudy
8:30 PM 62.6 °F 55.4 °F 77% 29.80 in 6.2 mi SW 16.1 mph - N/A   Overcast
8:46 PM 62.6 °F 53.6 °F 72% 29.80 in 6.2 mi SW 18.4 mph 33.4 mph N/A   Mostly Cloudy
9:00 PM 61 °F 54 °F 73% 29.83 in - SW 18.4 mph - -   Overcast
9:00 PM 60.8 °F 55.4 °F 82% 29.83 in 6.2 mi SW 18.4 mph 32.2 mph N/A   Overcast
9:30 PM 60.8 °F 55.4 °F 82% 29.83 in 6.2 mi SW 16.1 mph - N/A   Overcast
9:41 PM 60.8 °F 55.4 °F 82% 29.83 in 6.2 mi SW 17.3 mph 29.9 mph N/A   Mostly Cloudy
10:00 PM 60.8 °F 53.6 °F 77% 29.83 in 6.2 mi SW 17.3 mph 29.9 mph N/A   Mostly Cloudy
10:36 PM 60.8 °F 53.6 °F 77% 29.83 in 6.2 mi SW 18.4 mph 29.9 mph N/A   Mostly Cloudy
11:00 PM 60.8 °F 53.6 °F 77% 29.86 in 6.2 mi SW 20.7 mph - N/A   Overcast
11:03 PM 60.8 °F 53.6 °F 77% 29.86 in 6.2 mi SW 19.6 mph 31.1 mph N/A   Mostly Cloudy
11:37 PM 59.0 °F 53.6 °F 82% 29.89 in 6.2 mi SW 19.6 mph 34.5 mph N/A   Overcast